Fort Polk, LA

12:46 AM CST on December 17, 2017 (GMT -0600)
Polk Army Air Field

Weather History for KPOE - October, 2013

Change the Weather History Date:

Thursday, October 31, 2013

  Actual Average Record
Temperature  
Mean Temperature 70 °F -  
Max Temperature 75 °F 71 °F 86 °F (2016)
Min Temperature 64 °F 51 °F 41 °F (2011)
Cooling Degree Days 4    
Growing Degree Days 20 (Base 50)    
Moisture  
Dew Point 69 °F    
Average Humidity 96    
Maximum Humidity 100    
Minimum Humidity 87    
Precipitation  
Precipitation 2.57 in - - ()
Sea Level Pressure  
Sea Level Pressure 29.81 in    
Wind  
Wind Speed 13 mph (SSW)    
Max Wind Speed 24 mph    
Max Gust Speed 33 mph    
Visibility 6 miles    
Events Rain , Thunderstorm    
Averages and records for this station are not official NWS values.
T = Trace of Precipitation, MM = Missing Value Source: NWS Daily Summary

Daily Weather History Graph

Daily Weather History Graph

Search for Another Location

Airport or City:

Trip Planner

Search our weather history database for the weather conditions in past years. The results will help you decide how hot, cold, wet, or windy it might be!

Date:

Astronomy

Oct. 31, 2013 Rise Set
Actual Time 7:27 AM CDT 6:24 PM CDT
Civil Twilight 7:02 AM CDT 6:49 PM CDT
Nautical Twilight 6:33 AM CDT 7:18 PM CDT
Astronomical Twilight 6:05 AM CDT 7:46 PM CDT
Moon 4:28 AM CDT (10/31) 4:34 PM CDT (10/31)
Length of Visible Light 11h 47m
Length of Day
10h 57m
Waning Crescent, 10% of the Moon is Illuminated
Oct 31
Waning Crescent
Nov 3
New
Nov 9
First Quarter
Nov 17
Full
Nov 25
Last Quarter

Hourly Weather History & Observations

Time (CDT) Temp. Dew Point Humidity Pressure Visibility Wind Dir Wind Speed Gust Speed Precip Events Conditions
12:55 AM 72.0 °F 70.0 °F 93% 29.90 in 10.0 mi SSE 17.3 mph - 0.00 in   Overcast
1:55 AM 73.0 °F 71.1 °F 93% 29.86 in 10.0 mi SSE 15.0 mph - 0.00 in   Overcast
2:55 AM 72.0 °F 71.1 °F 97% 29.84 in 4.0 mi SSE 16.1 mph - 0.05 in Rain Heavy Rain
3:03 AM 71.6 °F 71.6 °F 100% 29.83 in 4.0 mi SSE 17.3 mph 26.5 mph 0.02 in Rain Rain
3:17 AM 71.6 °F 71.6 °F 100% 29.81 in 6.0 mi SSE 16.1 mph 25.3 mph 0.05 in Rain Light Rain
3:37 AM 71.6 °F 69.8 °F 94% 29.79 in 10.0 mi SSE 16.1 mph 24.2 mph 0.05 in   Overcast
3:55 AM 72.0 °F 70.0 °F 93% 29.81 in 10.0 mi SSE 18.4 mph 26.5 mph 0.05 in   Overcast
4:08 AM 71.6 °F 71.6 °F 100% 29.78 in 10.0 mi SSE 17.3 mph 26.5 mph N/A   Overcast
4:55 AM 73.0 °F 71.1 °F 93% 29.78 in 10.0 mi South 18.4 mph 29.9 mph N/A   Overcast
5:55 AM 75.0 °F 71.1 °F 87% 29.75 in 10.0 mi South 20.7 mph 29.9 mph 0.00 in   Overcast
6:15 AM 75.2 °F 71.6 °F 89% 29.74 in 10.0 mi South 20.7 mph 29.9 mph N/A   Overcast
6:55 AM 75.0 °F 72.0 °F 90% 29.73 in 7.0 mi South 16.1 mph 29.9 mph 0.02 in Rain Rain
7:09 AM 73.4 °F 71.6 °F 94% 29.73 in 6.0 mi South 17.3 mph 28.8 mph 0.03 in Rain Rain
7:25 AM 73.4 °F 73.4 °F 100% 29.76 in 3.0 mi South 12.7 mph 24.2 mph 0.13 in Rain , Thunderstorm Heavy Thunderstorms and Rain
7:32 AM 73.4 °F 73.4 °F 100% 29.76 in 2.5 mi South 18.4 mph 31.1 mph 0.17 in Rain , Thunderstorm Heavy Thunderstorms and Rain
7:39 AM 73.4 °F 73.4 °F 100% 29.76 in 4.0 mi South 18.4 mph 27.6 mph 0.19 in Rain , Thunderstorm Thunderstorms and Rain
7:55 AM 73.9 °F 73.0 °F 97% 29.77 in 5.0 mi South 15.0 mph 31.1 mph 0.23 in Rain , Thunderstorm Thunderstorms and Rain
8:07 AM 75.2 °F 73.4 °F 94% 29.76 in 4.0 mi South 13.8 mph 25.3 mph 0.04 in Rain Rain
8:18 AM 73.4 °F 73.4 °F 100% 29.76 in 4.0 mi South 16.1 mph 21.9 mph 0.07 in Rain , Thunderstorm Thunderstorms and Rain
8:27 AM 73.4 °F 73.4 °F 100% 29.76 in 5.0 mi South 16.1 mph 25.3 mph 0.10 in Rain , Thunderstorm Light Thunderstorms and Rain
8:34 AM 73.4 °F 73.4 °F 100% 29.76 in 1.8 mi South 13.8 mph 23.0 mph 0.29 in Rain , Thunderstorm Heavy Thunderstorms and Rain
8:44 AM 73.4 °F 73.4 °F 100% 29.75 in 2.0 mi South 24.2 mph 33.4 mph 0.44 in Rain , Thunderstorm Heavy Thunderstorms and Rain
8:48 AM 75.2 °F 73.4 °F 94% 29.75 in 1.8 mi South 20.7 mph 33.4 mph 0.53 in Rain , Thunderstorm Heavy Thunderstorms and Rain
8:55 AM 73.9 °F 73.0 °F 97% 29.72 in 2.0 mi SSE 21.9 mph 32.2 mph 0.57 in Rain , Thunderstorm Heavy Thunderstorms and Rain
8:57 AM 73.4 °F 73.4 °F 100% 29.72 in 3.0 mi South 19.6 mph 31.1 mph 0.00 in Rain Rain
9:06 AM 75.2 °F 73.4 °F 94% 29.78 in 6.0 mi SW 15.0 mph 29.9 mph 0.02 in Rain , Thunderstorm Thunderstorms and Rain
9:17 AM 75.2 °F 73.4 °F 94% 29.80 in 1.8 mi SSW 17.3 mph 26.5 mph 0.25 in Rain , Thunderstorm Heavy Thunderstorms and Rain
9:21 AM 73.4 °F 73.4 °F 100% 29.78 in 1.0 mi South 11.5 mph 26.5 mph 0.36 in Rain , Thunderstorm Heavy Thunderstorms and Rain
9:36 AM 73.4 °F 73.4 °F 100% 29.78 in 1.2 mi WNW 18.4 mph 28.8 mph 0.76 in Rain , Thunderstorm Heavy Thunderstorms and Rain
9:40 AM 73.4 °F 73.4 °F 100% 29.80 in 2.0 mi West 16.1 mph 28.8 mph 0.77 in Rain , Thunderstorm Rain
9:48 AM 73.4 °F 73.4 °F 100% 29.83 in 4.0 mi WSW 16.1 mph 25.3 mph 0.82 in Rain , Thunderstorm Heavy Thunderstorms and Rain
9:55 AM 73.0 °F 72.0 °F 96% 29.84 in 3.0 mi WSW 15.0 mph 26.5 mph 0.86 in Rain , Thunderstorm Heavy Thunderstorms and Rain
10:02 AM 73.4 °F 71.6 °F 94% 29.83 in 3.0 mi WSW 10.4 mph 26.5 mph 0.04 in Rain , Thunderstorm Heavy Thunderstorms and Rain
10:17 AM 71.6 °F 69.8 °F 94% 29.84 in 4.0 mi SW 10.4 mph 23.0 mph 0.10 in Rain , Thunderstorm Heavy Thunderstorms and Rain
10:22 AM 71.6 °F 69.8 °F 94% 29.84 in 3.0 mi SW 13.8 mph 21.9 mph 0.13 in Rain Heavy Rain
10:55 AM 70.0 °F 66.9 °F 90% 29.85 in 10.0 mi SW 8.1 mph - 0.20 in Rain Light Rain
11:12 AM 69.8 °F 66.2 °F 88% 29.83 in 2.5 mi SW 4.6 mph - 0.06 in Rain Rain
11:19 AM 69.8 °F 66.2 °F 88% 29.83 in 4.0 mi WSW 6.9 mph - 0.08 in Rain Rain
11:55 AM 69.1 °F 66.9 °F 93% 29.84 in 8.0 mi SSW 8.1 mph - 0.13 in Rain Light Rain
12:50 PM 69.8 °F 66.2 °F 88% 29.83 in 2.5 mi WSW 6.9 mph - 0.07 in Rain Rain
12:55 PM 69.1 °F 66.9 °F 93% 29.84 in 5.0 mi WSW 8.1 mph - 0.07 in Rain Light Rain
1:10 PM 68.0 °F 66.2 °F 94% 29.83 in 2.0 mi SSW 4.6 mph - 0.05 in Rain Rain
1:18 PM 68.0 °F 66.2 °F 94% 29.83 in 6.0 mi SW 4.6 mph - 0.06 in Rain Rain
1:43 PM 68.0 °F 66.2 °F 94% 29.82 in 2.5 mi SW 5.8 mph - 0.15 in Rain Heavy Rain
1:51 PM 68.0 °F 66.2 °F 94% 29.82 in 2.5 mi SSW 3.5 mph - 0.18 in Rain Heavy Rain
1:55 PM 68.0 °F 66.9 °F 96% 29.82 in 3.0 mi SSW 3.5 mph - 0.18 in Rain Rain
2:39 PM 66.2 °F 66.2 °F 100% 29.81 in 2.5 mi South 6.9 mph - 0.11 in Rain Rain
2:47 PM 66.2 °F 66.2 °F 100% 29.81 in 6.0 mi SSW 6.9 mph - 0.11 in Rain Light Rain
2:55 PM 66.9 °F 66.0 °F 97% 29.81 in 6.0 mi Variable 4.6 mph - 0.13 in Rain Rain
3:17 PM 66.2 °F 66.2 °F 100% 29.80 in 5.0 mi South 5.8 mph - 0.05 in Rain Rain
3:41 PM 66.2 °F 66.2 °F 100% 29.80 in 10.0 mi SSW 5.8 mph - 0.07 in Rain Light Rain
3:55 PM 66.9 °F 66.0 °F 97% 29.79 in 10.0 mi South 4.6 mph - 0.07 in Rain Light Rain
4:25 PM 66.2 °F 64.4 °F 94% 29.77 in 10.0 mi South 8.1 mph - 0.01 in   Mostly Cloudy
4:55 PM 66.0 °F 64.9 °F 96% 29.80 in 10.0 mi South 6.9 mph - 0.01 in   Overcast
5:55 PM 66.9 °F 64.9 °F 93% 29.81 in 10.0 mi SW 4.6 mph - N/A   Overcast
6:05 PM 66.2 °F 64.4 °F 94% 29.80 in 10.0 mi SSW 4.6 mph - N/A   Overcast
6:15 PM 66.2 °F 64.4 °F 94% 29.81 in 10.0 mi South 4.6 mph - N/A   Overcast
6:27 PM 66.2 °F 64.4 °F 94% 29.81 in 10.0 mi SSW 4.6 mph - N/A   Scattered Clouds
6:51 PM 66.2 °F 64.4 °F 94% 29.82 in 10.0 mi SSW 3.5 mph - N/A   Mostly Cloudy
6:55 PM 66.0 °F 64.9 °F 96% 29.83 in 10.0 mi SSW 4.6 mph - N/A   Mostly Cloudy
7:14 PM 66.2 °F 64.4 °F 94% 29.83 in 10.0 mi Variable 3.5 mph - N/A   Overcast
7:24 PM 66.2 °F 64.4 °F 94% 29.83 in 10.0 mi SW 4.6 mph - N/A   Overcast
7:55 PM 66.0 °F 64.9 °F 96% 29.84 in 10.0 mi SSW 5.8 mph - N/A   Overcast
8:55 PM 64.9 °F 64.0 °F 97% 29.87 in 10.0 mi SSW 4.6 mph - N/A   Overcast
9:18 PM 66.2 °F 64.4 °F 94% 29.87 in 10.0 mi SW 4.6 mph - N/A   Overcast
9:41 PM 64.4 °F 64.4 °F 100% 29.87 in 10.0 mi SW 4.6 mph - N/A   Overcast
9:55 PM 64.9 °F 64.0 °F 97% 29.87 in 10.0 mi SW 4.6 mph - N/A   Overcast
10:16 PM 64.4 °F 64.4 °F 100% 29.87 in 10.0 mi WSW 6.9 mph - N/A   Overcast
10:55 PM 64.9 °F 64.0 °F 97% 29.88 in 9.0 mi SW 8.1 mph - N/A   Overcast
11:55 PM 64.0 °F 63.0 °F 96% 29.89 in 10.0 mi WSW 4.6 mph - N/A   Overcast